• în România
  • Lista ţărilor
  • Pe 7 zile
  • Temperatura apei
  • Hartă satelitară
  • Meteo pe hartă
  • Widget-uri
  • user-avatar
    Intrare

    Meteo pe oră la Sokur

    Astăzi, 15 August, Miercuri

    Timp Temperatura Precipitaţii Vânt Presiune Umiditate
    00:00 +18°C° 0 mm 1 m/s 753 mmHg 76%
    01:00 +18°C° 0 mm 1 m/s 753 mmHg 77%
    02:00 +16°C° 0 mm 1 m/s 753 mmHg 78%
    03:00 +16°C° 0 mm 1 m/s 753 mmHg 79%
    04:00 +16°C° 0 mm 1 m/s 754 mmHg 77%
    05:00 +16°C° 0 mm 0 m/s 754 mmHg 76%
    06:00 +16°C° 0 mm 0 m/s 754 mmHg 75%
    07:00 +18°C° 0 mm 0 m/s 754 mmHg 67%
    08:00 +20°C° 0 mm 0 m/s 755 mmHg 60%
    09:00 +24°C° 0 mm 1 m/s 755 mmHg 53%
    10:00 +25°C° 0 mm 1 m/s 755 mmHg 48%
    11:00 +26°C° 0 mm 1 m/s 755 mmHg 44%
    12:00 +27°C° 0 mm 1 m/s 755 mmHg 39%
    13:00 +28°C° 0 mm 1 m/s 755 mmHg 38%
    14:00 +28°C° 0 mm 1 m/s 754 mmHg 37%
    15:00 +28°C° 0 mm 1 m/s 754 mmHg 35%
    16:00 +28°C° 0 mm 1 m/s 754 mmHg 39%
    17:00 +27°C° 0 mm 1 m/s 754 mmHg 42%
    18:00 +27°C° 0 mm 1 m/s 754 mmHg 46%
    19:00 +25°C° 0 mm 1 m/s 754 mmHg 47%
    20:00 +23°C° 0 mm 1 m/s 754 mmHg 49%
    21:00 +22°C° 0 mm 1 m/s 754 mmHg 51%
    22:00 +21°C° 0 mm 1 m/s 754 mmHg 51%
    23:00 +20°C° 0 mm 2 m/s 754 mmHg 52%

    Mâine, 16 August, Joi

    Timp Temperatura Precipitaţii Vânt Presiune Umiditate
    00:00 +19°C° 0 mm 2 m/s 754 mmHg 52%
    01:00 +19°C° 0 mm 2 m/s 754 mmHg 53%
    02:00 +19°C° 0 mm 2 m/s 754 mmHg 53%
    03:00 +18°C° 0 mm 2 m/s 754 mmHg 53%
    04:00 +19°C° 0 mm 2 m/s 754 mmHg 55%
    05:00 +19°C° 0 mm 2 m/s 754 mmHg 57%
    06:00 +19°C° 0 mm 2 m/s 754 mmHg 58%
    07:00 +21°C° 0 mm 3 m/s 754 mmHg 54%
    08:00 +24°C° 0 mm 3 m/s 754 mmHg 49%
    09:00 +26°C° 0 mm 3 m/s 754 mmHg 45%
    10:00 +28°C° 0 mm 3 m/s 754 mmHg 43%
    11:00 +29°C° 0 mm 4 m/s 754 mmHg 41%
    12:00 +30°C° 0 mm 4 m/s 754 mmHg 39%
    13:00 +31°C° 0 mm 3 m/s 753 mmHg 38%
    14:00 +31°C° 0 mm 3 m/s 753 mmHg 37%
    15:00 +31°C° 0 mm 3 m/s 753 mmHg 37%
    16:00 +30°C° 0 mm 3 m/s 752 mmHg 40%
    17:00 +30°C° 0 mm 2 m/s 752 mmHg 44%
    18:00 +29°C° 0 mm 2 m/s 752 mmHg 48%
    19:00 +27°C° 0 mm 2 m/s 752 mmHg 50%
    20:00 +26°C° 0 mm 1 m/s 752 mmHg 52%
    21:00 +24°C° 0 mm 1 m/s 753 mmHg 54%
    22:00 +24°C° 0 mm 1 m/s 752 mmHg 54%
    23:00 +23°C° 0 mm 1 m/s 752 mmHg 54%

    Poimâine, 17 August, Vineri

    Timp Temperatura Precipitaţii Vânt Presiune Umiditate
    00:00 +23°C° 0 mm 2 m/s 752 mmHg 54%
    01:00 +23°C° 0 mm 1 m/s 752 mmHg 55%
    02:00 +22°C° 0 mm 1 m/s 752 mmHg 57%
    03:00 +22°C° 0 mm 1 m/s 752 mmHg 58%
    04:00 +22°C° 0 mm 1 m/s 752 mmHg 59%
    05:00 +22°C° 0 mm 1 m/s 752 mmHg 60%
    06:00 +22°C° 0 mm 1 m/s 752 mmHg 61%
    07:00 +24°C° 0 mm 1 m/s 752 mmHg 58%
    08:00 +25°C° 0 mm 1 m/s 753 mmHg 55%
    09:00 +27°C° 0 mm 2 m/s 753 mmHg 52%
    10:00 +28°C° 0 mm 2 m/s 753 mmHg 49%
    11:00 +29°C° 0 mm 2 m/s 752 mmHg 47%
    12:00 +30°C° 0 mm 2 m/s 752 mmHg 45%
    13:00 +30°C° 0,1 mm 2 m/s 752 mmHg 47%
    14:00 +29°C° 0,1 mm 3 m/s 752 mmHg 49%
    15:00 +29°C° 0,1 mm 3 m/s 752 mmHg 51%
    16:00 +28°C° 0 mm 3 m/s 752 mmHg 57%
    17:00 +26°C° 0 mm 4 m/s 752 mmHg 63%
    18:00 +25°C° 0 mm 4 m/s 752 mmHg 69%
    19:00 +23°C° 1,1 mm 4 m/s 752 mmHg 75%
    20:00 +21°C° 1,1 mm 4 m/s 752 mmHg 82%
    21:00 +19°C° 1,1 mm 4 m/s 753 mmHg 88%
    22:00 +19°C° 0,1 mm 4 m/s 753 mmHg 88%
    23:00 +18°C° 0,1 mm 4 m/s 753 mmHg 88%

    18 August, Sâmbătă

    Timp Temperatura Precipitaţii Vânt Presiune Umiditate
    00:00 +18°C° 0,1 mm 4 m/s 753 mmHg 88%
    01:00 +17°C° 0 mm 4 m/s 753 mmHg 88%
    02:00 +15°C° 0 mm 4 m/s 754 mmHg 87%
    03:00 +15°C° 0 mm 4 m/s 754 mmHg 86%
    04:00 +15°C° 0 mm 4 m/s 754 mmHg 84%
    05:00 +15°C° 0 mm 4 m/s 754 mmHg 82%
    06:00 +14°C° 0 mm 4 m/s 755 mmHg 80%
    07:00 +16°C° 0 mm 5 m/s 755 mmHg 72%
    08:00 +17°C° 0 mm 5 m/s 755 mmHg 64%
    09:00 +20°C° 0 mm 6 m/s 755 mmHg 56%
    10:00 +21°C° 0 mm 6 m/s 755 mmHg 52%
    11:00 +22°C° 0 mm 6 m/s 755 mmHg 49%
    12:00 +23°C° 0 mm 5 m/s 755 mmHg 45%
    13:00 +23°C° 0 mm 5 m/s 755 mmHg 44%
    14:00 +23°C° 0 mm 5 m/s 755 mmHg 44%
    15:00 +25°C° 0 mm 5 m/s 755 mmHg 44%
    16:00 +23°C° 0 mm 5 m/s 755 mmHg 48%
    17:00 +22°C° 0 mm 4 m/s 755 mmHg 52%
    18:00 +21°C° 0 mm 4 m/s 755 mmHg 56%
    19:00 +20°C° 0 mm 4 m/s 755 mmHg 59%
    20:00 +18°C° 0 mm 3 m/s 756 mmHg 63%
    21:00 +16°C° 0 mm 3 m/s 756 mmHg 66%
    22:00 +16°C° 0 mm 3 m/s 756 mmHg 68%
    23:00 +14°C° 0 mm 3 m/s 756 mmHg 71%

    19 August, Duminică

    Timp Temperatura Precipitaţii Vânt Presiune Umiditate
    00:00 +13°C° 0 mm 3 m/s 756 mmHg 73%
    01:00 +13°C° 0 mm 3 m/s 756 mmHg 75%
    02:00 +12°C° 0 mm 3 m/s 757 mmHg 77%
    03:00 +12°C° 0 mm 3 m/s 757 mmHg 79%
    04:00 +12°C° 0 mm 3 m/s 757 mmHg 80%
    05:00 +12°C° 0 mm 3 m/s 757 mmHg 80%
    06:00 +12°C° 0 mm 3 m/s 757 mmHg 80%
    07:00 +14°C° 0 mm 3 m/s 757 mmHg 72%
    08:00 +15°C° 0 mm 4 m/s 757 mmHg 64%
    09:00 +18°C° 0 mm 4 m/s 757 mmHg 56%
    10:00 +19°C° 0 mm 4 m/s 757 mmHg 52%
    11:00 +20°C° 0 mm 4 m/s 757 mmHg 47%
    12:00 +21°C° 0 mm 4 m/s 756 mmHg 43%
    13:00 +22°C° 0 mm 4 m/s 756 mmHg 43%
    14:00 +22°C° 0 mm 4 m/s 756 mmHg 42%
    15:00 +22°C° 0 mm 4 m/s 756 mmHg 42%
    16:00 +22°C° 0 mm 4 m/s 755 mmHg 46%
    17:00 +21°C° 0 mm 3 m/s 755 mmHg 50%
    18:00 +20°C° 0 mm 3 m/s 755 mmHg 55%
    19:00 +19°C° 0 mm 3 m/s 755 mmHg 59%
    20:00 +17°C° 0 mm 3 m/s 755 mmHg 63%
    21:00 +15°C° 0 mm 2 m/s 756 mmHg 67%
    22:00 +15°C° 0 mm 2 m/s 756 mmHg 69%
    23:00 +14°C° 0 mm 2 m/s 756 mmHg 71%

    20 August, Luni

    Timp Temperatura Precipitaţii Vânt Presiune Umiditate
    00:00 +13°C° 0 mm 2 m/s 756 mmHg 73%
    01:00 +13°C° 0 mm 2 m/s 756 mmHg 75%
    02:00 +13°C° 0 mm 2 m/s 756 mmHg 77%
    03:00 +12°C° 0 mm 2 m/s 756 mmHg 80%
    04:00 +12°C° 0 mm 2 m/s 756 mmHg 80%
    05:00 +13°C° 0 mm 2 m/s 756 mmHg 81%
    06:00 +13°C° 0 mm 1 m/s 756 mmHg 81%
    07:00 +15°C° 0 mm 1 m/s 756 mmHg 74%
    08:00 +17°C° 0 mm 2 m/s 756 mmHg 66%
    09:00 +19°C° 0 mm 2 m/s 756 mmHg 59%
    10:00 +21°C° 0 mm 1 m/s 756 mmHg 53%
    11:00 +22°C° 0 mm 1 m/s 755 mmHg 48%
    12:00 +23°C° 0 mm 1 m/s 755 mmHg 42%
    13:00 +24°C° 0 mm 1 m/s 755 mmHg 40%
    14:00 +24°C° 0 mm 1 m/s 755 mmHg 38%
    15:00 +25°C° 0 mm 1 m/s 754 mmHg 36%
    16:00 +24°C° 0 mm 1 m/s 754 mmHg 39%
    17:00 +24°C° 0 mm 1 m/s 754 mmHg 43%
    18:00 +23°C° 0 mm 1 m/s 754 mmHg 46%
    19:00 +22°C° 0 mm 1 m/s 754 mmHg 48%
    20:00 +20°C° 0 mm 1 m/s 754 mmHg 50%
    21:00 +18°C° 0 mm 1 m/s 754 mmHg 52%
    22:00 +18°C° 0 mm 1 m/s 754 mmHg 53%
    23:00 +16°C° 0 mm 1 m/s 754 mmHg 54%
    Arată mai mult